Alexandria, LA

11:15 AM CDT on October 20, 2017 (GMT -0500)
Alexandria International

Weather History for KAEX - December, 2012

Change the Weather History Date:

Friday, December 7, 2012

  Actual Average Record
Temperature  
Mean Temperature 62 °F 51 °F  
Max Temperature 74 °F 62 °F 85 °F (1924)
Min Temperature 49 °F 41 °F 17 °F (1950)
Degree Days  
Heating Degree Days 3 14  
Month to date heating degree days 13 95  
Since 1 July heating degree days 380 420  
Growing Degree Days 10 (Base 50)    
Moisture  
Dew Point 55 °F    
Average Humidity 81    
Maximum Humidity 100    
Minimum Humidity 61    
Precipitation  
Precipitation 0.00 in 0.25 in 3.45 in (1916)
Month to date precipitation 0.32 1.80  
Year to date precipitation 48.29 51.60  
Snow  
Snow 0.00 in - 0.00 in ()
Month to date snowfall 0.0  
Since 1 July snowfall 0.0  
Snow Depth 0.00 in    
Sea Level Pressure  
Sea Level Pressure 29.92 in    
Wind  
Wind Speed 2 mph (SE)    
Max Wind Speed 9 mph    
Max Gust Speed 16 mph    
Visibility 4 miles    
Events Fog    
T = Trace of Precipitation, MM = Missing Value Source: NWS Daily Summary

Daily Weather History Graph

Daily Weather History Graph

Search for Another Location

Airport or City:

Trip Planner

Search our weather history database for the weather conditions in past years. The results will help you decide how hot, cold, wet, or windy it might be!

Date:

Astronomy

Dec. 07, 2012 Rise Set
Actual Time 6:56 AM CST 5:07 PM CST
Civil Twilight 6:29 AM CST 5:33 PM CST
Nautical Twilight 5:59 AM CST 6:04 PM CST
Astronomical Twilight 5:30 AM CST 6:33 PM CST
Moon 12:37 AM CST (12/7) 12:45 PM CST (12/7)
Length of Visible Light 11h 04m
Length of Day
10h 10m
Last Quarter, 38% of the Moon is Illuminated
Dec 7
Last Quarter
Dec 13
New
Dec 19
First Quarter
Dec 28
Full
Jan 4
Last Quarter

Hourly Weather History & Observations

Time (CST) Temp. Dew Point Humidity Pressure Visibility Wind Dir Wind Speed Gust Speed Precip Events Conditions
12:53 AM 53.1 °F 53.1 °F 100% 29.94 in 0.2 mi Calm Calm - N/A Fog Fog
1:18 AM 51.8 °F 51.8 °F 100% 29.93 in 0.5 mi Calm Calm - N/A Fog Fog
1:49 AM 51.8 °F 51.8 °F 100% 29.92 in 0.5 mi Calm Calm - N/A Fog Fog
1:53 AM 51.1 °F 51.1 °F 100% 29.93 in 0.8 mi Calm Calm - N/A   Overcast
2:05 AM 51.8 °F 51.8 °F 100% 29.91 in 0.5 mi Calm Calm - N/A Fog Fog
2:12 AM 51.8 °F 51.8 °F 100% 29.91 in 0.2 mi Calm Calm - N/A Fog Fog
2:30 AM 51.8 °F 51.8 °F 100% 29.92 in 0.5 mi Calm Calm - N/A Fog Fog
2:51 AM 51.8 °F 51.8 °F 100% 29.91 in 0.2 mi Calm Calm - N/A Fog Fog
2:53 AM 51.1 °F 51.1 °F 100% 29.93 in 0.2 mi Calm Calm - N/A Fog Fog
3:53 AM 50.0 °F 50.0 °F 100% 29.92 in 0.2 mi Calm Calm - N/A Fog Fog
4:19 AM 50.0 °F 50.0 °F 100% 29.91 in 0.5 mi Calm Calm - N/A Fog Fog
4:26 AM 50.0 °F 50.0 °F 100% 29.92 in 0.2 mi Calm Calm - N/A Fog Fog
4:53 AM 48.9 °F 48.9 °F 100% 29.93 in 0.2 mi Calm Calm - N/A Fog Fog
5:39 AM 51.8 °F 51.8 °F 100% 29.92 in 0.2 mi Calm Calm - N/A Fog Fog
6:01 AM 51.8 °F 51.8 °F 100% 29.92 in 0.2 mi East 3.5 mph - N/A Fog Fog
6:53 AM 51.1 °F 51.1 °F 100% 29.95 in 0.2 mi Calm Calm - 0.01 in Fog Fog
7:00 AM 51.8 °F 51.8 °F 100% 29.93 in 0.2 mi Calm Calm - N/A Fog Fog
7:26 AM 51.8 °F 51.8 °F 100% 29.93 in 0.2 mi Calm Calm - N/A Fog Fog
7:53 AM 52.0 °F 52.0 °F 100% 29.96 in 0.2 mi Calm Calm - N/A Fog Fog
8:06 AM 51.8 °F 51.8 °F 100% 29.95 in 0.2 mi Calm Calm - N/A Fog Fog
8:53 AM 54.0 °F 54.0 °F 100% 29.98 in 0.2 mi Calm Calm - N/A Fog Fog
9:02 AM 53.6 °F 53.6 °F 100% 29.96 in 0.8 mi Calm Calm - N/A   Mist
9:18 AM 55.4 °F 55.4 °F 100% 29.97 in 1.8 mi ESE 3.5 mph - N/A   Overcast
9:27 AM 55.4 °F 55.4 °F 100% 29.97 in 3.0 mi SE 4.6 mph - N/A   Overcast
9:53 AM 57.9 °F 57.9 °F 100% 29.98 in 5.0 mi SE 4.6 mph - N/A   Overcast
10:19 AM 59.0 °F 59.0 °F 100% 29.96 in 9.0 mi SE 5.8 mph - N/A   Mostly Cloudy
10:53 AM 64.0 °F 59.0 °F 84% 29.96 in 10.0 mi SSE 8.1 mph - N/A   Mostly Cloudy
11:53 AM 69.1 °F 59.0 °F 70% 29.93 in 10.0 mi SE 6.9 mph - N/A   Partly Cloudy
12:43 PM 71.6 °F 60.8 °F 69% 29.89 in 10.0 mi South 4.6 mph - N/A   Mostly Cloudy
12:53 PM 71.1 °F 60.1 °F 68% 29.90 in 10.0 mi Variable 5.8 mph - N/A   Mostly Cloudy
1:44 PM 73.4 °F 60.8 °F 65% 29.86 in 10.0 mi Calm Calm - N/A   Scattered Clouds
1:53 PM 72.0 °F 60.1 °F 66% 29.87 in 10.0 mi Calm Calm - N/A   Scattered Clouds
2:53 PM 73.9 °F 60.1 °F 62% 29.86 in 9.0 mi Variable 4.6 mph - N/A   Scattered Clouds
3:53 PM 73.0 °F 59.0 °F 61% 29.86 in 10.0 mi SSW 4.6 mph - N/A   Scattered Clouds
4:53 PM 70.0 °F 57.9 °F 65% 29.87 in 10.0 mi SSE 3.5 mph - N/A   Clear
5:53 PM 64.9 °F 57.9 °F 78% 29.87 in 10.0 mi SSE 4.6 mph - N/A   Clear
8:53 PM 61.0 °F 57.9 °F 90% 29.91 in 10.0 mi Calm Calm - N/A   Clear
9:53 PM 60.1 °F 59.0 °F 96% 29.91 in 10.0 mi SE 4.6 mph - N/A   Clear
10:53 PM 59.0 °F 59.0 °F 100% 29.92 in 8.0 mi SE 3.5 mph - N/A   Clear
11:53 PM 60.1 °F 59.0 °F 96% 29.91 in 9.0 mi Calm Calm - N/A   Partly Cloudy